Location: Zerbst
(51.9650°N, 12.0766°E)
Time: 22:39:56
(UTC+02:00)

ISS - Pass Details

Date: 22 May 2017
Orbit: 401 x 408 km, 51.6° (Epoch: 25 June)

Event Time Altitude Azimuth Distance (km) Brightness Sun altitude
Exits shadow 02:02:17 17° 263° (W) 1,115 -1.8 -16.7°
Maximum altitude 02:04:42 85° 175° (S) 415 -3.9 -16.6°
Drops below altitude 10° 02:08:00 10° 87° (E) 1,470 -0.8 -16.5°
Sets 02:10:05 0° 87° (E) 2,329 0.3 -16.4°
